Temperature
4 5 5 5 5 5 5 5 4 4 4 4 4 4 5 5 5 5 5 5 5 5 5 5 5 5 5 5 5 5 5 5 5 5 5 5 5 5
4 4 4 4 4 4 4 4 4 4 3 4 4 4 4 4 4 5 5 5 5 5 5 5 5 5 5 5 5 5 5 4 4 4 4 4 4 4
4 4 4 4 4 4 4 4 3 3 3 3 4 4 4 4 4 4 4 4 4 4 4 4 4 4 4 4 4 4 4 4 4 4 4 4 4 4
3 3 3 3 3 3 3 3 3 3 3 3 3 3 3 3 4 4 4 4 4 4 4 4 4 4 4 4 4 4 4 4 3 3 3 3 4 4
3 3 3 3 3 3 3 3 3 2 3 3 2 3 3 3 3 3 3 3 3 3 3 3 3 3 3 3 3 3 3 3 3 3 3 3 3 3
2 2 2 2 2 2 2 2 2 2 2 2 2 2 2 2 2 3 3 3 3 3 3 3 3 3 3 3 3 3 3 3 3 3 2 3 3 3
2 2 2 2 2 2 2 2 2 2 2 2 2 2 2 1 2 2 2 2 2 2 2 2 2 3 3 2 2 2 2 2 2 2 2 2 2 3
2 2 2 1 1 1 1 1 1 1 2 1 1 1 1 1 1 1 1 1 1 1 1 2 2 2 2 2 2 2 2 2 2 2 2 2 2 2
1 1 1 1 1 1 1 1 1 1 1 1 1 1 1 1 1 0 1 1 1 1 1 1 2 1 2 1 2 2 2 2 1 1 1 1 2 2
1 1 1 0 0 0 0 0 0 0 0 0 1 1 1 0 0 0 0 0 1 0 0 1 1 1 1 1 1 1 1 1 1 1 1 1 1 2
0 0 0 -0 -0 -0 -0 -0 -0 -0 -0 -0 -0 0 0 0 -0 -0 -0 -0 -0 -0 -0 -0 -0 0 1 1 1 1 1 1 1 1 1 1 1 1
-0 -0 -0 -1 -1 -1 -1 -1 -1 -1 -1 -1 -0 -0 -0 -1 -1 -1 -1 -1 -1 -1 -1 -1 -1 -1 -1 -0 -0 0 0 0 1 1 1 1 1 1
-1 -1 -1 -1 -1 -1 -1 -1 -1 -1 -1 -1 -1 -1 -1 -1 -1 -1 -1 -1 -1 -2 -1 -2 -1 -1 -1 -2 -1 -0 -0 -0 0 0 0 0 1 1
-2 -2 -2 -2 -2 -2 -1 -1 -2 -2 -2 -2 -2 -2 -2 -2 -2 -1 -1 -1 -2 -2 -2 -2 -2 -2 -2 -2 -2 -1 -1 -1 -1 -0 -0 0 1 1
-2 -2 -2 -2 -2 -2 -2 -2 -2 -2 -2 -2 -2 -2 -2 -2 -2 -2 -1 -2 -1 -2 -2 -2 -2 -2 -2 -2 -2 -2 -1 -1 -1 -1 -1 -0 0 0
-2 -2 -2 -2 -2 -2 -2 -2 -2 -3 -3 -3 -3 -3 -2 -2 -2 -2 -2 -2 -2 -2 -2 -2 -2 -2 -2 -2 -2 -2 -2 -2 -2 -1 -1 -0 -0 0
-3 -3 -3 -3 -3 -3 -3 -3 -3 -3 -3 -3 -3 -3 -3 -3 -3 -3 -3 -3 -3 -3 -2 -2 -2 -2 -2 -2 -2 -2 -2 -2 -2 -2 -1 -1 -0 -0
-3 -3 -3 -3 -3 -4 -4 -4 -4 -4 -4 -4 -3 -3 -3 -3 -3 -3 -3 -3 -3 -3 -3 -3 -3 -2 -2 -2 -2 -2 -2 -2 -2 -2 -2 -1 -1 -0
-3 -3 -4 -4 -4 -4 -4 -4 -4 -4 -4 -4 -4 -4 -4 -4 -4 -4 -4 -4 -4 -4 -4 -4 -3 -3 -3 -4 -3 -3 -3 -3 -3 -2 -2 -2 -1 -1
-3 -4 -4 -4 -4 -4 -4 -5 -5 -4 -4 -4 -4 -4 -4 -4 -4 -4 -4 -4 -4 -4 -4 -4 -4 -4 -4 -4 -4 -3 -3 -3 -3 -3 -2 -2 -1 -1
-4 -4 -4 -4 -4 -5 -5 -5 -5 -5 -5 -5 -5 -4 -4 -4 -4 -5 -5 -5 -5 -5 -4 -4 -4 -4 -4 -4 -4 -3 -3 -3 -3 -3 -3 -2 -2 -1
-4 -4 -5 -5 -5 -5 -5 -5 -5 -5 -5 -5 -5 -5 -5 -5 -5 -5 -5 -5 -5 -5 -5 -5 -4 -4 -4 -4 -4 -4 -3 -3 -3 -3 -3 -3 -3 -2
-5 -5 -5 -5 -5 -5 -5 -6 -5 -5 -5 -5 -5 -5 -5 -5 -5 -5 -5 -5 -5 -5 -5 -5 -4 -4 -4 -5 -5 -4 -4 -3 -3 -3 -2 -2 -2 -2
Wind_Speed
3 3 3 2 1 0 0 1 1 2 3 2 1 0 2 2 4 5 5 6 6 7 7 7 7 7 8 8 8 9 9 10 10 10 11 11 11 10
2 3 2 1 0 0 0 1 1 1 3 2 2 2 2 3 5 6 5 6 6 7 7 7 8 7 7 8 8 9 9 10 10 10 10 11 11 10
3 2 2 1 1 0 0 0 1 1 2 3 2 2 2 2 4 5 5 4 5 7 7 8 8 8 7 8 8 9 9 9 9 9 10 10 11 10
3 2 2 1 1 0 1 1 1 1 2 3 3 2 3 3 3 3 5 5 5 6 7 7 9 9 7 7 8 8 8 9 9 9 9 10 11 10
2 2 2 2 1 1 1 1 1 1 1 2 3 3 2 3 3 4 4 4 5 6 6 7 8 9 8 8 8 8 8 8 9 9 9 10 11 10
2 1 1 2 2 2 1 1 0 1 1 1 1 2 2 3 3 3 4 5 5 6 6 7 9 10 9 9 9 9 9 9 9 9 9 9 10 9
1 1 1 1 1 1 0 0 0 0 0 0 1 2 2 3 3 3 4 5 5 3 4 5 6 5 6 8 8 9 10 10 9 9 9 9 9 8
2 1 1 2 2 2 2 2 1 1 1 1 1 2 2 3 3 3 3 4 4 3 4 5 4 4 4 5 9 10 9 10 9 9 9 9 10 9
2 1 1 1 2 2 2 3 2 2 1 0 1 2 2 2 3 3 4 5 4 5 5 5 4 4 4 7 11 11 10 10 10 10 9 9 9 8
2 2 2 2 1 2 2 2 2 2 2 1 0 1 2 2 2 3 3 4 4 4 3 3 4 4 5 6 10 11 11 11 11 10 10 10 8 8
1 2 3 2 2 3 2 2 2 2 3 4 4 4 5 5 4 2 3 3 4 4 3 2 3 5 4 4 7 11 12 12 12 11 11 10 9 8
1 2 2 2 2 2 2 2 2 2 3 3 4 5 4 4 5 3 2 2 3 3 3 3 3 4 4 3 4 8 9 11 12 11 11 10 9 6
1 2 2 3 2 3 3 2 1 2 2 2 2 2 3 3 4 4 3 2 2 3 3 3 3 3 3 4 5 6 6 7 8 9 9 10 10 7
2 2 2 4 4 4 3 4 4 4 2 2 2 2 3 3 3 4 5 4 3 3 5 4 3 3 4 5 5 5 6 6 6 6 7 9 9 9
2 3 4 5 5 4 4 5 4 3 2 2 2 2 3 3 3 3 4 4 4 4 5 4 3 3 3 4 5 5 6 5 5 5 6 6 5 5
3 4 5 6 5 5 5 4 3 2 2 2 2 2 2 3 3 3 3 4 4 4 5 6 5 3 3 4 4 5 5 4 5 6 6 6 6 6
2 2 2 2 3 3 3 3 3 3 3 2 2 2 3 3 3 3 3 4 3 4 5 5 6 4 3 3 3 4 4 4 5 6 6 6 6 6
2 2 2 2 2 2 2 2 2 2 2 2 2 2 2 3 3 3 3 4 4 4 4 5 5 5 4 3 2 3 4 5 5 6 5 5 6 6
2 2 1 1 2 2 2 2 2 2 2 2 2 2 2 3 3 3 4 4 4 4 4 4 4 4 5 6 5 5 4 5 6 6 5 5 6 7
2 2 2 1 2 2 1 1 1 2 2 2 2 2 3 3 3 3 3 4 4 4 4 4 4 4 4 4 4 6 7 4 4 5 6 5 5 7
2 2 2 2 2 1 1 1 1 1 2 2 2 2 3 3 3 3 3 4 4 4 5 5 5 6 4 3 4 4 5 7 6 5 5 5 5 5
2 2 1 2 1 1 1 1 1 1 2 2 2 2 3 3 3 4 4 3 3 4 4 4 5 4 3 4 4 6 6 7 8 9 7 4 3 3
1 1 1 1 1 1 1 1 1 1 1 1 2 2 3 3 3 3 4 3 3 4 4 4 4 4 3 3 4 5 6 7 6 6 6 9 8 7
Wind_Direction
239 249 260 263 245 315 320 195 211 277 291 286 289 306 360 335 334 334 320 316 323 326 330 329 322 316 315 317 316 316 317 316 312 312 309 311 308 309
239 242 256 246 144 64 323 313 279 231 270 283 304 306 326 336 331 336 320 319 315 321 328 328 327 319 316 316 317 316 317 315 313 311 312 311 310 309
248 238 232 186 180 191 261 285 302 274 265 301 318 323 331 340 339 341 330 320 316 318 325 330 332 327 323 319 318 317 317 317 316 314 315 315 316 310
240 236 229 192 167 174 193 234 274 282 257 287 306 319 330 331 338 342 339 337 329 322 330 332 333 334 331 325 319 320 321 323 320 313 315 317 318 314
229 223 213 175 198 205 202 228 269 306 292 259 292 313 327 340 349 344 340 340 337 334 341 339 338 340 337 333 329 326 325 325 322 316 315 314 316 313
213 213 193 180 185 199 208 217 268 291 298 269 280 311 328 338 351 343 340 339 335 339 349 343 337 336 336 338 338 335 332 330 327 325 325 324 322 319
188 191 164 139 97 118 149 136 130 209 272 268 286 323 332 342 337 329 331 329 327 337 340 332 330 333 337 337 336 335 337 332 328 327 328 329 330 328
172 167 139 131 101 70 48 40 20 203 210 206 273 289 308 322 325 327 328 331 326 335 335 318 326 328 335 340 336 335 337 336 333 329 329 330 331 330
132 124 105 95 96 108 71 40 24 356 329 238 231 267 290 310 313 318 324 327 311 310 324 310 319 321 329 335 337 337 337 337 335 333 328 328 329 329
112 122 116 106 96 89 79 51 30 13 350 353 236 299 321 322 319 316 317 325 316 321 335 308 317 317 320 330 335 341 338 338 337 337 336 334 331 332
85 102 105 110 81 68 77 59 31 23 29 27 11 5 357 359 6 9 348 344 329 323 343 332 317 318 313 314 337 341 339 338 338 340 342 341 339 333
75 96 98 98 80 62 85 85 50 22 27 25 20 12 8 6 8 10 335 328 326 316 333 343 323 336 329 315 329 342 339 339 340 340 343 346 346 346
88 81 86 75 59 47 62 83 51 32 46 41 22 11 8 11 8 0 346 319 311 302 313 333 320 327 314 312 319 328 338 339 339 339 341 346 348 348
88 80 71 55 53 54 60 59 53 50 58 45 32 17 8 4 360 355 352 346 324 292 303 315 308 311 317 315 315 325 333 338 341 341 345 342 342 342
79 70 63 58 60 60 59 54 51 52 52 44 27 11 357 346 351 356 358 0 356 345 337 325 308 308 305 303 309 318 325 328 343 344 339 337 334 338
74 74 61 58 58 57 54 48 48 52 52 46 21 6 0 1 3 358 353 354 359 353 355 356 344 324 318 304 301 308 321 324 331 330 327 326 334 337
75 82 75 69 66 58 55 52 45 40 42 35 25 12 7 5 358 354 353 352 357 349 348 349 350 340 306 303 311 320 328 328 323 327 329 330 328 337
80 93 80 73 77 66 59 47 40 34 31 25 16 9 5 1 355 353 355 359 355 349 346 341 343 346 349 350 335 327 339 331 324 326 329 328 327 332
88 96 96 95 85 75 66 52 33 26 24 19 11 1 358 357 355 357 360 359 354 350 345 342 348 357 355 345 334 351 338 326 327 330 332 327 317 317
93 96 91 93 88 79 68 54 39 32 28 17 10 2 357 357 355 353 352 351 350 348 344 346 353 351 340 324 314 317 323 317 326 327 327 324 316 312
74 83 89 94 89 81 71 54 39 27 20 15 9 359 351 351 349 345 341 340 347 344 341 338 327 328 320 318 322 323 322 326 320 317 325 329 331 342
68 70 76 88 89 93 74 55 42 31 22 17 2 356 348 345 342 339 336 337 338 337 332 326 325 336 347 344 333 326 325 330 339 342 337 328 324 337
63 68 76 83 89 92 89 56 38 22 9 358 349 343 340 338 336 334 334 335 336 340 342 338 341 345 344 337 331 329 331 334 339 346 344 344 336 320
Height
1464 1464 1464 1464 1464 1465 1465 1466 1465 1463 1462 1463 1463 1463 1462 1462 1461 1461 1460 1459 1458 1457 1456 1456 1455 1454 1454 1453 1452 1451 1450 1448 1447 1446 1445 1443 1442 1441
1460 1460 1460 1460 1461 1461 1462 1463 1463 1462 1461 1460 1460 1460 1459 1459 1459 1457 1456 1455 1455 1454 1453 1452 1451 1450 1450 1449 1448 1447 1446 1444 1443 1442 1441 1439 1438 1437
1456 1456 1456 1457 1457 1458 1459 1460 1460 1460 1459 1457 1458 1457 1457 1455 1455 1454 1453 1452 1451 1451 1450 1449 1448 1447 1446 1445 1444 1443 1442 1440 1439 1438 1437 1436 1434 1433
1452 1453 1453 1453 1454 1455 1456 1457 1457 1457 1457 1455 1454 1454 1453 1452 1452 1451 1450 1449 1448 1448 1446 1445 1444 1443 1442 1441 1440 1439 1438 1437 1435 1434 1433 1432 1431 1429
1449 1449 1450 1451 1451 1452 1453 1454 1454 1454 1454 1453 1452 1452 1451 1450 1449 1448 1448 1446 1445 1444 1443 1442 1441 1440 1439 1438 1437 1436 1435 1433 1432 1431 1430 1428 1427 1426
1445 1446 1447 1448 1448 1449 1450 1450 1451 1451 1451 1451 1450 1449 1448 1447 1446 1445 1444 1443 1442 1441 1440 1439 1438 1437 1436 1434 1433 1432 1431 1430 1429 1428 1426 1425 1424 1422
1442 1443 1444 1445 1446 1447 1447 1448 1448 1448 1449 1448 1448 1447 1446 1444 1444 1443 1442 1440 1439 1438 1436 1436 1435 1433 1432 1431 1430 1429 1428 1427 1426 1424 1423 1422 1420 1419
1439 1440 1441 1442 1443 1444 1445 1445 1446 1446 1446 1446 1446 1445 1443 1443 1442 1442 1440 1438 1436 1436 1434 1433 1432 1430 1429 1428 1427 1426 1425 1424 1422 1421 1420 1418 1417 1416
1436 1437 1438 1439 1440 1441 1442 1443 1444 1445 1445 1445 1444 1443 1442 1441 1441 1440 1439 1437 1436 1434 1432 1429 1429 1427 1426 1425 1424 1423 1422 1420 1419 1418 1416 1415 1414 1413
1435 1436 1436 1437 1438 1439 1440 1440 1441 1442 1442 1442 1442 1441 1440 1440 1439 1439 1437 1436 1434 1433 1431 1428 1426 1424 1423 1422 1421 1420 1418 1417 1416 1414 1413 1412 1411 1409
1433 1434 1435 1436 1436 1437 1438 1438 1438 1439 1439 1439 1439 1439 1438 1438 1438 1437 1436 1434 1431 1430 1429 1427 1424 1422 1420 1419 1418 1417 1415 1414 1413 1411 1410 1409 1408 1406
1432 1432 1433 1434 1435 1435 1436 1436 1436 1436 1436 1436 1436 1436 1436 1436 1435 1435 1434 1433 1430 1429 1427 1426 1423 1421 1418 1416 1416 1414 1412 1411 1410 1409 1407 1406 1405 1403
1430 1431 1432 1432 1433 1434 1434 1434 1434 1434 1434 1434 1434 1434 1434 1434 1433 1432 1432 1431 1429 1428 1426 1425 1422 1420 1419 1415 1413 1412 1410 1408 1407 1406 1405 1404 1402 1401
1429 1430 1430 1431 1432 1432 1432 1432 1432 1432 1432 1432 1432 1432 1432 1431 1431 1430 1429 1429 1428 1426 1425 1423 1421 1419 1417 1414 1411 1409 1408 1406 1405 1403 1402 1401 1400 1398
1428 1429 1430 1430 1430 1430 1431 1431 1431 1431 1431 1431 1431 1431 1431 1430 1430 1429 1428 1427 1425 1424 1423 1422 1420 1418 1416 1414 1411 1408 1406 1405 1403 1402 1400 1398 1397 1395
1427 1428 1429 1429 1429 1429 1430 1429 1430 1430 1430 1431 1430 1430 1430 1429 1428 1428 1426 1425 1423 1422 1422 1420 1418 1417 1414 1412 1410 1408 1406 1405 1403 1401 1399 1397 1395 1394
1426 1427 1428 1428 1428 1428 1428 1429 1429 1429 1429 1430 1430 1429 1429 1428 1428 1427 1426 1424 1423 1421 1419 1418 1416 1415 1413 1412 1409 1407 1406 1404 1402 1400 1398 1395 1393 1392
1426 1426 1427 1427 1427 1427 1428 1428 1428 1428 1429 1429 1429 1429 1428 1427 1426 1426 1425 1423 1422 1420 1418 1417 1415 1413 1412 1410 1409 1407 1405 1403 1401 1399 1397 1394 1391 1390
1425 1425 1426 1427 1427 1427 1427 1428 1428 1428 1428 1428 1428 1428 1427 1426 1425 1424 1423 1422 1421 1419 1418 1416 1415 1412 1411 1408 1407 1407 1404 1402 1400 1398 1396 1394 1391 1389
1424 1425 1425 1426 1426 1427 1427 1427 1428 1428 1428 1428 1427 1427 1426 1425 1424 1424 1423 1422 1420 1419 1417 1416 1414 1413 1411 1410 1407 1405 1405 1402 1400 1397 1395 1393 1391 1389
1424 1424 1425 1425 1426 1426 1427 1427 1427 1427 1427 1427 1426 1426 1425 1425 1424 1423 1422 1421 1420 1419 1417 1416 1414 1413 1411 1409 1407 1405 1404 1402 1400 1398 1395 1392 1390 1388
1423 1424 1424 1425 1425 1426 1426 1426 1426 1426 1426 1426 1426 1425 1425 1424 1423 1422 1422 1421 1420 1418 1417 1415 1414 1412 1410 1409 1407 1405 1402 1401 1399 1398 1396 1394 1392 1389
1422 1423 1424 1424 1424 1425 1425 1425 1425 1425 1425 1425 1425 1424 1424 1423 1422 1422 1421 1420 1419 1418 1416 1415 1413 1412 1410 1408 1407 1405 1402 1400 1398 1397 1396 1394 1393 1391